YAOGAN 26

Last updated on Tue Nov 21 2023 00:02:24 GMT+0000 (Coordinated Universal Time)

1 40362U 14088A 23324.59070842 .00009022 00000+0 38452-3 0 9992 2 40362 97.0767 352.3963 0003432 33.8513 326.2943 15.23151219493936
UTC large
Height (km)
Speed (km/s)
/
Latitude / Longitude
Inclination (degrees)
Orbital Period (minutes)
Azimuth
Elevation
Range (km)
Doppler Factor

Next 0 passes for location: London (51.5072 / 0.1276)

Sorry there are no passes over London.